Location: Gönnheim
(49.4488°N, 8.2383°E)
Time: 01:02:15
(UTC+00:00)

Cosmos 2058 Rocket - Pass Details

Date: 19 May 2025
Orbit: 604 x 634 km, 82.5° (Epoch: 15 June)

Event Time Altitude Azimuth Distance (km) Brightness Sun altitude
Rises 20:37:09 0° 198° (SSW) 2,917 6.2 -11.4°
Reaches altitude 10° 20:39:24 10° 203° (SSW) 2,012 5.4 -11.6°
Maximum altitude 20:43:49 59° 282° (WNW) 734 3.7 -12.1°
Drops below altitude 10° 20:48:14 10° 3° (N) 2,015 6.5 -12.5°
Sets 20:50:30 0° 7° (N) 2,923 7.3 -12.7°
